FW1030 Weather Reports


time (UTC)temp
C
wind
direction
speed
KPH
gust
KPH
rain 1hr
cm
rain 24hr
cm
rain mn
cm
humidity
%
barometer
mb
20210920041638 27 272 0.0 0.0 0.00 0.00 0.00 83 1015.7
20210920040125 28 236 0.0 0.0 0.00 0.00 0.00 83 1015.7
20210920034635 27 298 0.0 0.0 0.00 0.00 0.00 83 1015.7
20210920033101 27 300 0.0 0.0 0.00 0.00 0.00 84 1015.7
20210920031556 27 300 0.0 0.0 0.00 0.00 0.00 84 1015.8
20210920030129 27 300 0.0 0.0 0.00 0.00 0.00 84 1015.7
20210920024622 27 300 0.0 0.0 0.00 0.00 0.00 84 1015.6
20210920023117 27 300 0.0 0.0 0.00 0.00 0.00 84 1015.7
20210920021656 27 300 0.0 0.0 0.00 0.00 0.00 83 1015.7
20210920020059 27 300 0.0 0.0 0.00 0.00 0.00 83 1015.6
20210920014547 27 300 0.0 0.0 0.00 0.00 0.00 82 1015.6
20210920013127 27 300 0.0 0.0 0.00 0.00 0.00 82 1015.3
20210920011610 28 300 0.0 0.0 0.00 0.00 0.00 81 1015.2
20210920010100 27 300 0.0 0.0 0.00 0.00 0.00 81 1015.0
20210920004712 27 300 0.0 0.0 0.00 0.00 0.00 80 1014.8
20210920003109 28 300 0.0 0.0 0.00 0.00 0.00 79 1014.6
20210920001602 28 300 0.0 0.0 0.00 0.00 0.00 79 1014.6
20210920000049 28 300 0.0 0.0 0.00 0.00 0.00 77 1014.4
20210919234552 28 298 0.0 0.0 0.00 0.00 0.00 77 1014.3
20210919233031 28 297 0.0 0.0 0.00 0.00 0.00 77 1014.2
20210919231554 28 5 0.0 0.0 0.00 0.00 0.00 76 1014.0
20210919230038 28 333 0.0 0.0 0.00 0.00 0.00 76 1014.0
20210919224532 28 30 0.0 0.0 0.00 0.00 0.00 76 1014.0
20210919223031 28 5 0.0 0.0 0.00 0.00 0.00 76 1013.9
20210919221638 28 360 0.0 0.0 0.00 0.00 0.00 76 1013.7
20210919220046 28 26 0.0 0.0 0.00 0.00 0.00 77 1013.9
20210919214542 28 5 0.0 0.0 0.00 0.00 0.00 77 1013.7
20210919213041 28 30 0.0 0.0 0.00 0.00 0.00 76 1013.9
20210919211520 28 23 0.0 0.0 0.00 0.00 0.00 78 1013.9
20210919210047 28 5 0.0 0.0 0.00 0.00 0.00 77 1013.8
20210919204530 28 34 0.0 0.0 0.00 0.00 0.00 77 1013.7
20210919203016 28 34 0.0 0.0 0.00 0.00 0.00 76 1014.0
20210919201702 29 49 0.0 0.0 0.00 0.00 0.00 76 1014.1
20210919200124 29 37 0.0 0.0 0.00 0.00 0.00 76 1014.0
20210919194558 29 5 0.0 0.0 0.00 0.00 0.00 75 1014.2
20210919193038 29 18 0.0 0.0 0.00 0.00 0.00 74 1014.2
20210919191536 30 34 0.0 0.0 0.00 0.00 0.00 75 1014.2
20210919190044 30 16 0.0 0.0 0.00 0.00 0.00 74 1014.6
20210919184545 30 19 0.0 0.0 0.00 0.00 0.00 75 1014.7
20210919183036 30 360 0.0 0.0 0.00 0.00 0.00 73 1014.9
20210919181614 30 336 0.0 0.0 0.00 0.00 0.00 74 1015.1
20210919180036 30 13 0.0 0.0 0.00 0.00 0.00 75 1015.1
20210919174518 30 11 0.0 0.0 0.00 0.00 0.00 74 1015.5
20210919173020 30 14 0.0 0.0 0.00 0.00 0.00 73 1015.8
20210919171537 30 351 0.0 0.0 0.00 0.00 0.00 74 1016.0
20210919170017 30 338 0.0 0.0 0.00 0.00 0.00 73 1016.2
20210919164523 30 5 0.0 0.0 0.00 0.00 0.00 73 1016.3
20210919163026 30 24 0.0 0.0 0.00 0.00 0.00 74 1016.4
20210919161542 30 11 0.0 0.0 0.00 0.00 0.00 76 1016.6
20210919160006 30 350 0.0 0.0 0.00 0.00 0.00 75 1016.6
20210919154516 30 355 0.0 0.0 0.00 0.00 0.00 73 1016.7
20210919153154 30 5 0.0 0.0 0.00 0.00 0.00 75 1016.8
20210919151537 30 360 0.0 0.0 0.00 0.00 0.00 74 1016.8
20210919150139 30 11 0.0 0.0 0.00 0.00 0.00 76 1016.7
20210919144540 30 321 0.0 0.0 0.00 0.00 0.00 77 1016.6
20210919143054 29 323 0.0 0.0 0.00 0.00 0.00 77 1016.5
20210919141545 29 254 0.0 0.0 0.00 0.00 0.00 78 1016.5
20210919140019 28 260 0.0 0.0 0.00 0.00 0.00 79 1016.4
20210919134532 28 231 0.0 0.0 0.00 0.00 0.00 81 1016.4
20210919133038 28 235 0.0 0.0 0.00 0.00 0.00 82 1016.3
20210919131513 28 263 0.0 0.0 0.00 0.00 0.00 81 1016.2
20210919130027 28 239 0.0 0.0 0.00 0.00 0.00 81 1016.2
20210919124507 27 282 0.0 0.0 0.00 0.00 0.00 82 1016.1
20210919123012 27 252 0.0 0.0 0.00 0.00 0.00 82 1016.0
20210919121505 27 277 0.0 0.0 0.00 0.00 0.00 83 1016.0
20210919120003 27 264 0.0 0.0 0.00 0.00 0.00 83 1015.9
20210919114506 27 244 0.0 0.0 0.00 0.00 0.00 85 1015.9
20210919113002 27 219 0.0 0.0 0.00 0.00 0.00 85 1016.0
20210919110247 27 261 0.0 0.0 0.00 0.00 0.00 84 1015.8
20210919104622 27 259 0.0 0.0 0.00 0.00 0.00 83 1015.7
20210919103131 27 246 0.0 0.0 0.00 0.00 0.00 82 1015.6
20210919101636 27 262 0.0 0.0 0.00 0.00 0.00 82 1015.5
20210919100055 27 232 0.0 0.0 0.00 0.00 0.00 81 1015.5
20210919094718 27 209 0.0 0.0 0.00 0.00 0.00 81 1015.3
20210919093117 27 230 0.0 0.0 0.00 0.00 0.00 80 1015.2
20210919091717 27 222 0.0 0.0 0.00 0.00 0.00 81 1015.2
20210919090121 27 236 0.0 0.0 0.00 0.00 0.00 83 1015.1
20210919084612 27 213 0.0 0.0 0.00 0.00 0.00 84 1015.0
20210919083137 27 213 0.0 0.0 0.00 0.00 0.00 83 1015.0
20210919081614 27 219 0.0 0.0 0.00 0.00 0.00 83 1015.0
20210919080047 27 220 0.0 0.0 0.00 0.00 0.00 83 1015.1
20210919074534 27 167 0.0 0.0 0.00 0.00 0.00 83 1015.1
20210919073100 26 49 0.0 0.0 0.00 0.00 0.00 82 1015.2
20210919071615 27 49 0.0 0.0 0.00 0.00 0.00 82 1015.3
20210919070103 27 49 0.0 0.0 0.00 0.00 0.00 83 1015.4
20210919064620 27 49 0.0 0.0 0.00 0.00 0.00 83 1015.5
20210919063121 27 49 0.0 0.0 0.00 0.00 0.00 83 1015.8
20210919061655 27 49 0.0 0.0 0.00 0.00 0.00 82 1015.8
20210919060102 27 49 0.0 0.0 0.00 0.00 0.00 81 1016.0
20210919054539 27 49 0.0 0.0 0.00 0.00 0.00 81 1016.1
20210919053119 27 49 0.0 0.0 0.00 0.00 0.00 81 1016.2
20210919051604 27 49 0.0 0.0 0.00 0.00 0.00 81 1016.4
20210919050111 27 49 0.0 0.0 0.00 0.00 0.00 81 1016.4
20210919044536 27 49 0.0 0.0 0.00 0.00 0.00 82 1016.2
20210919043056 27 49 0.0 0.0 0.00 0.00 0.00 83 1016.3